TimeCST,TemperatureF,Dew PointF,Humidity,Sea Level PressureIn,VisibilityMPH,Wind Direction,Wind SpeedMPH,Gust SpeedMPH,PrecipitationIn,Events,Conditions,WindDirDegrees,DateUTC
12:53 AM,27.0,15.1,61,30.40,10.0,North,9.2,-,N/A,,Clear,10,2013-02-16 06:53:00
1:53 AM,21.9,14.0,72,30.41,10.0,NW,6.9,-,N/A,,Clear,320,2013-02-16 07:53:00
2:53 AM,19.9,12.0,71,30.41,10.0,NW,6.9,-,N/A,,Clear,310,2013-02-16 08:53:00
3:53 AM,19.9,10.9,68,30.39,10.0,NW,4.6,-,N/A,,Clear,320,2013-02-16 09:53:00
4:53 AM,18.0,10.0,71,30.39,10.0,WNW,4.6,-,N/A,,Clear,290,2013-02-16 10:53:00
5:53 AM,16.0,9.0,74,30.39,10.0,Calm,Calm,-,N/A,,Clear,0,2013-02-16 11:53:00
6:53 AM,12.9,8.1,81,30.39,10.0,West,4.6,-,N/A,,Partly Cloudy,260,2013-02-16 12:53:00
7:53 AM,17.1,12.0,81,30.38,10.0,Calm,Calm,-,N/A,,Scattered Clouds,0,2013-02-16 13:53:00
8:53 AM,24.1,16.0,71,30.35,10.0,Calm,Calm,-,N/A,,Partly Cloudy,0,2013-02-16 14:53:00
9:53 AM,30.0,16.0,56,30.33,10.0,SSW,9.2,-,N/A,,Scattered Clouds,210,2013-02-16 15:53:00
10:53 AM,34.0,12.9,42,30.31,10.0,SSW,12.7,-,N/A,,Mostly Cloudy,210,2013-02-16 16:53:00
11:53 AM,37.0,12.0,36,30.27,10.0,South,17.3,24.2,N/A,,Overcast,190,2013-02-16 17:53:00
12:53 PM,39.9,14.0,35,30.20,10.0,South,20.7,28.8,N/A,,Mostly Cloudy,190,2013-02-16 18:53:00
1:53 PM,43.0,16.0,34,30.16,10.0,SSW,19.6,27.6,N/A,,Mostly Cloudy,210,2013-02-16 19:53:00
2:53 PM,46.0,19.0,34,30.14,10.0,SSW,23.0,29.9,N/A,,Mostly Cloudy,210,2013-02-16 20:53:00
3:53 PM,46.9,24.1,41,30.12,10.0,SSW,19.6,25.3,N/A,,Partly Cloudy,200,2013-02-16 21:53:00
4:53 PM,48.0,26.1,42,30.09,10.0,South,19.6,-,N/A,,Partly Cloudy,180,2013-02-16 22:53:00
5:53 PM,45.0,27.0,49,30.08,10.0,South,11.5,-,N/A,,Scattered Clouds,180,2013-02-16 23:53:00
6:53 PM,39.9,26.1,58,30.08,10.0,SSE,8.1,-,N/A,,Partly Cloudy,160,2013-02-17 00:53:00
7:53 PM,39.0,26.1,60,30.07,10.0,SSE,9.2,-,N/A,,Partly Cloudy,160,2013-02-17 01:53:00
8:53 PM,37.9,27.0,65,30.06,10.0,SSE,6.9,-,N/A,,Scattered Clouds,150,2013-02-17 02:53:00
9:53 PM,35.1,27.0,72,30.06,10.0,SE,5.8,-,N/A,,Partly Cloudy,130,2013-02-17 03:53:00
10:53 PM,34.0,27.0,75,30.05,10.0,SSE,8.1,-,N/A,,Clear,150,2013-02-17 04:53:00
11:53 PM,32.0,26.1,79,30.03,10.0,SE,8.1,-,N/A,,Clear,130,2013-02-17 05:53:00